| time (UTC) | temp C | wind direction | speed KPH | gust KPH | rain 1hr cm | rain 24hr cm | rain mn cm | humidity % | barometer mb |
| 20260504034202 | 12 | 158 | 0.0 | 0.0 | 0.00 | 0.00 | 0.00 | 9 | 1009.8 |
| 20260504033202 | 12 | 158 | 0.0 | 0.0 | 0.00 | 0.00 | 0.00 | 9 | 1009.8 |
| 20260504032202 | 12 | 158 | 0.0 | 0.0 | 0.00 | 0.00 | 0.00 | 9 | 1009.8 |
| 20260504031202 | 12 | 158 | 0.0 | 0.0 | 0.00 | 0.00 | 0.00 | 9 | 1009.8 |
| 20260504030201 | 12 | 158 | 0.0 | 0.0 | 0.00 | 0.00 | 0.00 | 9 | 1009.8 |
| 20260504025202 | 12 | 158 | 0.0 | 0.0 | 0.00 | 0.00 | 0.00 | 9 | 1009.8 |
| 20260504024202 | 12 | 158 | 0.0 | 0.0 | 0.00 | 0.00 | 0.00 | 9 | 1009.8 |
| 20260504023201 | 12 | 158 | 0.0 | 0.0 | 0.00 | 0.00 | 0.00 | 9 | 1009.8 |
| 20260504022202 | 12 | 158 | 6.4 | 8.0 | 0.00 | 0.00 | 0.00 | 9 | 1010.8 |
| 20260504021202 | 12 | 180 | 0.0 | 0.0 | 0.00 | 0.00 | 0.00 | 9 | 1009.8 |
| 20260504020202 | 12 | 202 | 0.0 | 0.0 | 0.00 | 0.00 | 0.00 | 9 | 1009.8 |
| 20260504015202 | 12 | 202 | 0.0 | 0.0 | 0.00 | 0.00 | 0.00 | 9 | 1009.8 |
| 20260504014202 | 12 | 202 | 0.0 | 0.0 | 0.00 | 0.00 | 0.00 | 9 | 1009.8 |
| 20260504013202 | 12 | 202 | 0.0 | 0.0 | 0.00 | 0.00 | 0.00 | 9 | 1009.8 |
| 20260504012202 | 12 | 202 | 0.0 | 0.0 | 0.00 | 0.00 | 0.00 | 9 | 1009.8 |
| 20260504011202 | 12 | 202 | 0.0 | 0.0 | 0.00 | 0.00 | 0.00 | 9 | 1009.8 |
| 20260504010202 | 12 | 202 | 0.0 | 0.0 | 0.00 | 0.00 | 0.00 | 9 | 1009.8 |
| 20260504005202 | 12 | 202 | 0.0 | 0.0 | 0.00 | 0.00 | 0.00 | 9 | 1009.8 |
| 20260504004202 | 13 | 202 | 0.0 | 0.0 | 0.00 | 0.00 | 0.00 | 9 | 1009.8 |
| 20260504003202 | 13 | 202 | 0.0 | 0.0 | 0.00 | 0.00 | 0.00 | 9 | 1009.8 |
| 20260504002202 | 13 | 202 | 0.0 | 0.0 | 0.00 | 0.00 | 0.00 | 9 | 1009.8 |
| 20260504001202 | 13 | 202 | 0.0 | 0.0 | 0.00 | 0.00 | 0.00 | 9 | 1009.8 |
| 20260504000204 | 13 | 202 | 0.0 | 0.0 | 0.00 | 0.00 | 0.00 | 9 | 1009.8 |
| 20260503235202 | 13 | 202 | 0.0 | 0.0 | 0.00 | 0.00 | 0.00 | 9 | 1009.8 |
| 20260503234202 | 13 | 225 | 0.0 | 0.0 | 0.00 | 0.00 | 0.00 | 9 | 1009.8 |
| 20260503233202 | 13 | 225 | 0.0 | 0.0 | 0.00 | 0.00 | 0.00 | 9 | 1009.8 |
| 20260503232202 | 13 | 225 | 0.0 | 0.0 | 0.00 | 0.00 | 0.00 | 9 | 1009.8 |
| 20260503231202 | 13 | 225 | 0.0 | 0.0 | 0.00 | 0.00 | 0.00 | 9 | 1009.8 |
| 20260503230202 | 14 | 225 | 0.0 | 0.0 | 0.00 | 0.00 | 0.00 | 9 | 1009.8 |
| 20260503225202 | 14 | 225 | 0.0 | 0.0 | 0.00 | 0.00 | 0.00 | 9 | 1009.8 |
| 20260503224202 | 15 | 225 | 0.0 | 0.0 | 0.00 | 0.00 | 0.00 | 8 | 1009.8 |
| 20260503223202 | 15 | 225 | 0.0 | 0.0 | 0.00 | 0.00 | 0.00 | 8 | 1009.8 |
| 20260503222202 | 15 | 225 | 6.4 | 6.4 | 0.00 | 0.00 | 0.00 | 9 | 1009.8 |
| 20260503221202 | 15 | 248 | 3.2 | 3.2 | 0.00 | 0.00 | 0.00 | 9 | 1009.8 |
| 20260503220201 | 15 | 248 | 0.0 | 0.0 | 0.00 | 0.00 | 0.00 | 9 | 1009.8 |
| 20260503215202 | 15 | 248 | 0.0 | 0.0 | 0.00 | 0.00 | 0.00 | 8 | 1009.8 |
| 20260503214202 | 15 | 248 | 0.0 | 0.0 | 0.00 | 0.00 | 0.00 | 8 | 1009.8 |
| 20260503213202 | 15 | 248 | 0.0 | 0.0 | 0.00 | 0.00 | 0.00 | 8 | 1009.8 |
| 20260503212202 | 15 | 248 | 3.2 | 4.8 | 0.00 | 0.00 | 0.00 | 8 | 1009.8 |
| 20260503211202 | 15 | 248 | 3.2 | 3.2 | 0.00 | 0.00 | 0.00 | 8 | 1009.8 |
| 20260503210202 | 15 | 248 | 6.4 | 6.4 | 0.00 | 0.00 | 0.00 | 8 | 1009.8 |
| 20260503205202 | 15 | 248 | 0.0 | 0.0 | 0.00 | 0.00 | 0.00 | 9 | 1009.8 |
| 20260503204203 | 15 | 248 | 4.8 | 6.4 | 0.00 | 0.00 | 0.00 | 9 | 1009.8 |
| 20260503203202 | 15 | 158 | 0.0 | 0.0 | 0.00 | 0.00 | 0.00 | 9 | 1009.8 |
| 20260503202202 | 15 | 158 | 0.0 | 0.0 | 0.00 | 0.00 | 0.00 | 9 | 1009.8 |
| 20260503201203 | 15 | 158 | 0.0 | 0.0 | 0.00 | 0.00 | 0.00 | 9 | 1009.8 |
| 20260503200202 | 16 | 158 | 0.0 | 0.0 | 0.00 | 0.00 | 0.00 | 9 | 1009.8 |
| 20260503195202 | 16 | 158 | 1.6 | 1.6 | 0.00 | 0.00 | 0.00 | 9 | 1009.8 |
| 20260503194201 | 16 | 158 | 0.0 | 0.0 | 0.00 | 0.00 | 0.00 | 9 | 1009.8 |
| 20260503193202 | 16 | 158 | 0.0 | 0.0 | 0.00 | 0.00 | 0.00 | 8 | 1009.8 |
| 20260503192202 | 16 | 158 | 0.0 | 0.0 | 0.00 | 0.00 | 0.00 | 8 | 1009.8 |
| 20260503191202 | 16 | 202 | 3.2 | 3.2 | 0.00 | 0.00 | 0.00 | 8 | 1009.8 |
| 20260503190202 | 16 | 202 | 0.0 | 0.0 | 0.00 | 0.00 | 0.00 | 8 | 1009.8 |
| 20260503185203 | 16 | 202 | 0.0 | 0.0 | 0.00 | 0.00 | 0.00 | 8 | 1009.8 |
| 20260503184202 | 16 | 202 | 0.0 | 0.0 | 0.00 | 0.00 | 0.00 | 8 | 1009.8 |
| 20260503183202 | 16 | 202 | 0.0 | 0.0 | 0.00 | 0.00 | 0.00 | 8 | 1009.8 |
| 20260503182202 | 16 | 202 | 0.0 | 0.0 | 0.00 | 0.00 | 0.00 | 8 | 1008.8 |
| 20260503181201 | 16 | 202 | 6.4 | 8.0 | 0.00 | 0.00 | 0.00 | 8 | 1008.8 |
| 20260503180202 | 16 | 225 | 3.2 | 3.2 | 0.00 | 0.00 | 0.00 | 8 | 1008.8 |
| 20260503175202 | 16 | 202 | 8.0 | 8.0 | 0.00 | 0.00 | 0.00 | 8 | 1009.8 |
| 20260503174202 | 16 | 202 | 8.0 | 8.0 | 0.00 | 0.00 | 0.00 | 8 | 1008.8 |
| 20260503173202 | 16 | 270 | 6.4 | 6.4 | 0.00 | 0.00 | 0.00 | 8 | 1008.8 |
| 20260503172202 | 16 | 202 | 3.2 | 4.8 | 0.00 | 0.00 | 0.00 | 8 | 1008.8 |
| 20260503171202 | 16 | 225 | 12.9 | 12.9 | 0.00 | 0.00 | 0.00 | 8 | 1008.8 |
| 20260503170202 | 16 | 202 | 9.7 | 11.3 | 0.00 | 0.00 | 0.00 | 8 | 1008.8 |
| 20260503160202 | 15 | 180 | 11.3 | 12.9 | 0.00 | 0.00 | 0.00 | 9 | 1009.8 |
| 20260503150202 | 15 | 202 | 11.3 | 12.9 | 0.00 | 0.00 | 0.00 | 9 | 1009.8 |
| 20260503140202 | 16 | 180 | 11.3 | 11.3 | 0.00 | 0.00 | 0.00 | 8 | 1009.8 |
| 20260503131202 | 16 | 225 | 11.3 | 11.3 | 0.00 | 0.00 | 0.00 | 7 | 1009.8 |
| 20260503130202 | 16 | 202 | 3.2 | 4.8 | 0.00 | 0.00 | 0.00 | 7 | 1009.8 |
| 20260503120201 | 18 | 202 | 6.4 | 6.4 | 0.00 | 0.00 | 0.00 | 5 | 1009.8 |
| 20260503110202 | 20 | 248 | 14.5 | 14.5 | 0.00 | 0.00 | 0.00 | 5 | 1009.8 |
| 20260503100202 | 20 | 135 | 9.7 | 9.7 | 0.00 | 0.00 | 0.00 | 5 | 1008.8 |
| 20260503090202 | 20 | 180 | 0.0 | 0.0 | 0.00 | 0.00 | 0.00 | 5 | 1009.8 |
| 20260503081202 | 18 | 180 | 11.3 | 11.3 | 0.00 | 0.00 | 0.00 | 6 | 1009.8 |
| 20260503080202 | 17 | 158 | 11.3 | 11.3 | 0.00 | 0.00 | 0.00 | 6 | 1009.8 |
| 20260503072202 | 16 | 135 | 11.3 | 11.3 | 0.00 | 0.00 | 0.00 | 7 | 1009.8 |
| 20260503071202 | 16 | 135 | 11.3 | 12.9 | 0.00 | 0.00 | 0.00 | 7 | 1009.8 |
| 20260503070201 | 16 | 135 | 0.0 | 0.0 | 0.00 | 0.00 | 0.00 | 7 | 1009.8 |
| 20260503060202 | 15 | 135 | 8.0 | 8.0 | 0.00 | 0.00 | 0.00 | 8 | 1009.8 |
| 20260503054201 | 15 | 158 | 0.0 | 0.0 | 0.00 | 0.00 | 0.00 | 8 | 1009.8 |
| 20260503053202 | 14 | 135 | 0.0 | 0.0 | 0.00 | 0.00 | 0.00 | 8 | 1009.8 |
| 20260503052201 | 14 | 135 | 0.0 | 0.0 | 0.00 | 0.00 | 0.00 | 9 | 1009.8 |
| 20260503051202 | 13 | 135 | 0.0 | 0.0 | 0.00 | 0.00 | 0.00 | 9 | 1009.8 |
| 20260503050202 | 13 | 135 | 0.0 | 0.0 | 0.00 | 0.00 | 0.00 | 9 | 1009.8 |
| 20260503045202 | 13 | 68 | 0.0 | 0.0 | 0.00 | 0.00 | 0.00 | 9 | 1009.8 |
| 20260503044202 | 13 | 68 | 0.0 | 0.0 | 0.00 | 0.00 | 0.00 | 9 | 1009.8 |
| 20260503043201 | 13 | 68 | 0.0 | 0.0 | 0.00 | 0.00 | 0.00 | 9 | 1009.8 |
| 20260503042201 | 13 | 68 | 0.0 | 0.0 | 0.00 | 0.00 | 0.00 | 9 | 1009.8 |
| 20260503041202 | 13 | 45 | 0.0 | 0.0 | 0.00 | 0.00 | 0.00 | 9 | 1009.8 |
| 20260503040202 | 13 | 22 | 0.0 | 0.0 | 0.00 | 0.00 | 0.00 | 9 | 1009.8 |
| 20260503035202 | 13 | 0 | 0.0 | 0.0 | 0.00 | 0.00 | 0.00 | 9 | 1009.8 |